NOAA 16 DEB, 41277

Orbit data source: Space-Track

NOAA 16 DEB, 41277 is space debris in SSO originally from a launch on Thu, 21 Sep 2000 UTC launched from the Air Force Western Test Range (AFWTR). Debris objects in space refer to the collection of defunct objects orbiting the Earth. Examples of debris include non-operational satellites, rocket bodies, and fragments generated from explosions, collisions, or faulty payload assembly.

Loading next visibility...
Identifier
41277, 2000-055GD
Orbit
SSO
Country
Flag of USUS
Related business
Manufacturer
Unknown
Mission
Spacecraft
Bus & Motor
Unknown
Mass
Unknown
Launch date (UTC)
2000-09-21 (25 years ago)
Launch vehicle
Unknown
Launch site
Air Force Western Test Range (AFWTR)
Object type
Payload
Rocket body
Debris
Shape & HBR
Unknown shape, 0.1 m
Radar Cross Section
Small (<0.1 m²)

Expand to show TLE details & history
Last TLE update: 15 hours ago

TLE from 15 hours ago
0 NOAA 16 DEB
1 41277U 00055GD  25310.74462402  .00012350  00000-0  32235-2 0  9999
2 41277  98.9877 140.5156 0033213  72.0438 288.4370 14.49270035514219
Epoch: 2025-11-06T17:52Z
TLE epoch observation values (Epoch: 2025-11-06T17:52:15.515Z)
Latitude
0.00001°
Longitude
-173.74759°
Altitude
723.584 km
Speed
7.497 km/s
True Right ascension
09h 22m 03s
True Declination
0° 00' 00"
Sunlit
Object was in daylight at epoch
Visualization orbit readout
Latitude
Unknown
Longitude
Unknown
Altitude
Unknown
Speed
Unknown
Apparent Right ascension
Unknown
Apparent Declination
Unknown
Sunlit
N/A
Visualization observer readout
Local Sidereal Time
05:00:26
Azimuth
Unknown
Elevation
Unknown
Doppler factor
Unknown
Orbital elements
Apogee altitude
748.759 km
Perigee altitude
701.575 km
Semi-major axis
7,103.304 km
Eccentricity
0.00332
Inclination
98.9877°
RAAN
140.5156°
Arg. of periapsis
72.0438°
True anomaly
288.07547°
Mean anomaly
288.437°
Eccentric anomaly
288.25628°
Mean motion
3.62537 °/min
Orbital period
99.3 mins
BSTAR
0.0032235
Loading maneuver chart data...
Computing Atmospheric mass density...
Loading historical data...
Loading historical data...
Loading historical data...
Loading historical data...
Loading historical data...
Loading historical data...
Loading historical data...

Documentation

Showing up to 5 results
|